Location: Amherst
(42.5000°N, 72.5000°W)
Time: 14:31:40
(UTC-04:00)

ISS - Pass Details

Date: 20 July 2018
Orbit: 402 x 408 km, 51.6° (Epoch: 17 July)

Event Time Altitude Azimuth Distance (km) Brightness Sun altitude
Rises 02:26:41 0° 306° (NW) 2,329 0.2 -23.5°
Reaches altitude 10° 02:29:04 10° 322° (NW) 1,469 -0.7 -23.3°
Maximum altitude 02:31:44 22° 16° (NNE) 938 -1.2 -23.1°
Drops below altitude 10° 02:34:25 10° 70° (ENE) 1,467 -0.4 -22.9°
Sets 02:36:47 0° 86° (E) 2,327 0.4 -22.7°
